• In Belarus
  • List of Countries
  • For 7 days
  • Water Temperature
  • Satellite Maps
  • Weather Map
  • Weather Widgets
  • user-avatar
    Login

    Hourly Weather Chandur

    Today, 24 September, Monday

    Time Temperature Precipitation Wind Pressure Humidity
    00:00 +26°C° 0 mm 1 mps 738 mmHg 85%
    01:00 +26°C° 0 mm 2 mps 737 mmHg 86%
    02:00 +26°C° 0 mm 2 mps 737 mmHg 87%
    03:00 +25°C° 0 mm 2 mps 737 mmHg 88%
    04:00 +25°C° 0 mm 1 mps 737 mmHg 89%
    05:00 +25°C° 0 mm 1 mps 737 mmHg 90%
    06:00 +26°C° 0 mm 2 mps 737 mmHg 86%
    07:00 +28°C° 0 mm 2 mps 738 mmHg 82%
    08:00 +29°C° 0 mm 2 mps 738 mmHg 78%
    09:00 +30°C° 0.1 mm 2 mps 738 mmHg 73%
    10:00 +32°C° 0.1 mm 2 mps 738 mmHg 68%
    11:00 +32°C° 0 mm 2 mps 739 mmHg 64%
    12:00 +34°C° 0.2 mm 2 mps 738 mmHg 62%
    13:00 +34°C° 0.2 mm 2 mps 737 mmHg 60%
    14:00 +34°C° 0.2 mm 1 mps 736 mmHg 57%
    15:00 +33°C° 0.2 mm 1 mps 736 mmHg 61%
    16:00 +33°C° 0.2 mm 1 mps 736 mmHg 65%
    17:00 +29°C° 0 mm 0 mps 736 mmHg 72%
    18:00 +28°C° 0.8 mm 0 mps 736 mmHg 75%
    19:00 +29°C° 0.8 mm 1 mps 736 mmHg 77%
    20:00 +28°C° 0.8 mm 1 mps 737 mmHg 79%
    21:00 +28°C° 0.2 mm 1 mps 737 mmHg 80%
    22:00 +28°C° 0.2 mm 1 mps 737 mmHg 80%
    23:00 +26°C° 0.2 mm 0 mps 737 mmHg 81%

    Tomorrow, 25 September, Tuesday

    Time Temperature Precipitation Wind Pressure Humidity
    00:00 +25°C° 0.3 mm 0 mps 737 mmHg 82%
    01:00 +25°C° 0.3 mm 0 mps 736 mmHg 83%
    02:00 +25°C° 0.3 mm 0 mps 736 mmHg 84%
    03:00 +25°C° 0.5 mm 0 mps 736 mmHg 84%
    04:00 +25°C° 0.5 mm 0 mps 736 mmHg 85%
    05:00 +24°C° 0.5 mm 0 mps 736 mmHg 85%
    06:00 +26°C° 0.1 mm 0 mps 737 mmHg 82%
    07:00 +27°C° 0.1 mm 0 mps 737 mmHg 79%
    08:00 +28°C° 0.1 mm 0 mps 738 mmHg 75%
    09:00 +29°C° 0.6 mm 0 mps 737 mmHg 71%
    10:00 +32°C° 0.6 mm 1 mps 737 mmHg 67%
    11:00 +34°C° 0.6 mm 1 mps 737 mmHg 62%
    12:00 +33°C° 1.2 mm 1 mps 736 mmHg 63%
    13:00 +33°C° 1.2 mm 1 mps 736 mmHg 63%
    14:00 +33°C° 1.2 mm 1 mps 735 mmHg 63%
    15:00 +33°C° 0.3 mm 1 mps 735 mmHg 67%
    16:00 +32°C° 0.3 mm 1 mps 734 mmHg 71%
    17:00 +31°C° 0.3 mm 1 mps 734 mmHg 74%
    18:00 +30°C° 0 mm 1 mps 735 mmHg 75%
    19:00 +30°C° 0 mm 1 mps 735 mmHg 76%
    20:00 +27°C° 0 mm 0 mps 736 mmHg 78%
    21:00 +27°C° 0 mm 0 mps 736 mmHg 78%
    22:00 +26°C° 0 mm 0 mps 736 mmHg 78%
    23:00 +28°C° 0 mm 1 mps 736 mmHg 79%

    Day after tomorrow, 26 September, Wednesday

    Time Temperature Precipitation Wind Pressure Humidity
    00:00 +28°C° 0 mm 1 mps 735 mmHg 80%
    01:00 +27°C° 0 mm 1 mps 735 mmHg 81%
    02:00 +27°C° 0 mm 1 mps 735 mmHg 82%
    03:00 +27°C° 0 mm 1 mps 735 mmHg 83%
    04:00 +26°C° 0 mm 1 mps 735 mmHg 85%
    05:00 +26°C° 0 mm 1 mps 735 mmHg 86%
    06:00 +27°C° 0 mm 1 mps 736 mmHg 82%
    07:00 +29°C° 0 mm 1 mps 736 mmHg 79%
    08:00 +30°C° 0 mm 1 mps 737 mmHg 76%
    09:00 +31°C° 0.1 mm 2 mps 737 mmHg 70%
    10:00 +32°C° 0.1 mm 2 mps 736 mmHg 65%
    11:00 +35°C° 0.1 mm 2 mps 736 mmHg 59%
    12:00 +35°C° 0 mm 2 mps 735 mmHg 58%
    13:00 +35°C° 0 mm 2 mps 735 mmHg 56%
    14:00 +36°C° 0 mm 2 mps 734 mmHg 54%
    15:00 +35°C° 0 mm 2 mps 734 mmHg 59%
    16:00 +34°C° 0 mm 2 mps 734 mmHg 63%
    17:00 +32°C° 0 mm 2 mps 734 mmHg 67%
    18:00 +31°C° 0 mm 1 mps 734 mmHg 68%
    19:00 +30°C° 0 mm 1 mps 735 mmHg 69%
    20:00 +29°C° 0 mm 1 mps 735 mmHg 69%
    21:00 +29°C° 0 mm 1 mps 735 mmHg 70%
    22:00 +29°C° 0 mm 1 mps 735 mmHg 70%
    23:00 +28°C° 0 mm 1 mps 735 mmHg 71%

    27 September, Thursday

    Time Temperature Precipitation Wind Pressure Humidity
    00:00 +28°C° 0 mm 1 mps 735 mmHg 72%
    01:00 +27°C° 0 mm 1 mps 735 mmHg 73%
    02:00 +27°C° 0 mm 1 mps 734 mmHg 74%
    03:00 +27°C° 0 mm 1 mps 734 mmHg 75%
    04:00 +27°C° 0 mm 1 mps 734 mmHg 76%
    05:00 +26°C° 0 mm 1 mps 734 mmHg 77%
    06:00 +28°C° 0 mm 1 mps 735 mmHg 74%
    07:00 +29°C° 0 mm 1 mps 736 mmHg 72%
    08:00 +30°C° 0 mm 1 mps 736 mmHg 70%
    09:00 +31°C° 0 mm 2 mps 736 mmHg 65%
    10:00 +34°C° 0 mm 2 mps 736 mmHg 61%
    11:00 +35°C° 0 mm 3 mps 736 mmHg 57%
    12:00 +35°C° 0 mm 3 mps 735 mmHg 55%
    13:00 +36°C° 0 mm 2 mps 734 mmHg 53%
    14:00 +36°C° 0 mm 2 mps 734 mmHg 52%
    15:00 +35°C° 0 mm 2 mps 734 mmHg 56%
    16:00 +34°C° 0 mm 2 mps 734 mmHg 61%
    17:00 +32°C° 0 mm 1 mps 734 mmHg 65%
    18:00 +31°C° 0 mm 1 mps 734 mmHg 66%
    19:00 +30°C° 0 mm 1 mps 735 mmHg 66%
    20:00 +29°C° 0 mm 1 mps 735 mmHg 67%
    21:00 +29°C° 0 mm 1 mps 735 mmHg 67%
    22:00 +29°C° 0 mm 1 mps 736 mmHg 68%
    23:00 +28°C° 0 mm 1 mps 736 mmHg 69%

    28 September, Friday

    Time Temperature Precipitation Wind Pressure Humidity
    00:00 +28°C° 0 mm 1 mps 735 mmHg 70%
    01:00 +28°C° 0 mm 1 mps 735 mmHg 71%
    02:00 +27°C° 0 mm 1 mps 734 mmHg 72%
    03:00 +25°C° 0 mm 0 mps 734 mmHg 73%
    04:00 +25°C° 0 mm 0 mps 734 mmHg 74%
    05:00 +25°C° 0 mm 0 mps 735 mmHg 75%
    06:00 +26°C° 0 mm 0 mps 735 mmHg 73%
    07:00 +29°C° 0 mm 1 mps 736 mmHg 70%
    08:00 +30°C° 0 mm 1 mps 737 mmHg 67%
    09:00 +31°C° 0 mm 1 mps 736 mmHg 63%
    10:00 +34°C° 0 mm 2 mps 736 mmHg 58%
    11:00 +35°C° 0 mm 2 mps 736 mmHg 53%
    12:00 +35°C° 0 mm 2 mps 735 mmHg 52%
    13:00 +36°C° 0 mm 2 mps 735 mmHg 50%
    14:00 +36°C° 0 mm 2 mps 734 mmHg 48%
    15:00 +35°C° 0 mm 2 mps 734 mmHg 53%
    16:00 +34°C° 0 mm 2 mps 734 mmHg 57%
    17:00 +32°C° 0 mm 1 mps 734 mmHg 62%
    18:00 +31°C° 0 mm 1 mps 735 mmHg 62%
    19:00 +30°C° 0 mm 1 mps 735 mmHg 63%
    20:00 +29°C° 0 mm 1 mps 736 mmHg 63%
    21:00 +29°C° 0 mm 1 mps 736 mmHg 64%
    22:00 +29°C° 0 mm 1 mps 736 mmHg 65%
    23:00 +28°C° 0 mm 1 mps 736 mmHg 65%

    29 September, Saturday

    Time Temperature Precipitation Wind Pressure Humidity
    00:00 +28°C° 0 mm 1 mps 735 mmHg 67%
    01:00 +27°C° 0 mm 1 mps 735 mmHg 68%
    02:00 +27°C° 0 mm 1 mps 735 mmHg 69%
    03:00 +27°C° 0 mm 1 mps 735 mmHg 70%
    04:00 +27°C° 0 mm 1 mps 735 mmHg 71%
    05:00 +26°C° 0 mm 1 mps 735 mmHg 72%
    06:00 +28°C° 0 mm 1 mps 736 mmHg 69%
    07:00 +29°C° 0 mm 1 mps 737 mmHg 67%
    08:00 +30°C° 0 mm 1 mps 737 mmHg 64%
    09:00 +32°C° 0 mm 1 mps 737 mmHg 60%
    10:00 +34°C° 0 mm 2 mps 737 mmHg 55%
    11:00 +35°C° 0 mm 2 mps 736 mmHg 51%
    12:00 +36°C° 0 mm 2 mps 736 mmHg 50%
    13:00 +36°C° 0 mm 2 mps 735 mmHg 48%
    14:00 +36°C° 0 mm 2 mps 734 mmHg 47%
    15:00 +36°C° 0 mm 2 mps 734 mmHg 51%
    16:00 +35°C° 0 mm 2 mps 734 mmHg 56%
    17:00 +34°C° 0 mm 2 mps 735 mmHg 60%
    18:00 +32°C° 0 mm 1 mps 735 mmHg 61%
    19:00 +31°C° 0 mm 1 mps 735 mmHg 61%
    20:00 +30°C° 0 mm 1 mps 736 mmHg 61%
    21:00 +29°C° 0.1 mm 1 mps 736 mmHg 62%
    22:00 +29°C° 0.1 mm 1 mps 736 mmHg 63%
    23:00 +27°C° 0.1 mm 0 mps 736 mmHg 65%
    Show more